Year,Month,Day,Hour,Minute,Value (Times are PST for temperature in C)
2018,10,15,00,00,4.90
2018,10,15,00,01,4.90
2018,10,15,00,02,4.90
2018,10,15,00,03,4.90
2018,10,15,00,04,4.90
2018,10,15,00,05,4.90
2018,10,15,00,06,4.90
2018,10,15,00,07,4.90
2018,10,15,00,08,4.90
2018,10,15,00,09,4.90
2018,10,15,00,10,4.90
2018,10,15,00,11,4.90
2018,10,15,00,12,4.90
2018,10,15,00,13,4.90
2018,10,15,00,14,4.90
2018,10,15,00,15,4.90
2018,10,15,00,16,4.90
2018,10,15,00,17,4.90
2018,10,15,00,18,4.90
2018,10,15,00,19,4.90
2018,10,15,00,20,4.90
2018,10,15,00,21,4.90
2018,10,15,00,22,4.80
2018,10,15,00,23,4.80
2018,10,15,00,24,4.80
2018,10,15,00,25,4.80
2018,10,15,00,26,4.80
2018,10,15,00,27,4.80
2018,10,15,00,28,4.80
2018,10,15,00,29,4.80
2018,10,15,00,30,4.80
2018,10,15,00,31,4.80
2018,10,15,00,32,4.80
2018,10,15,00,33,4.80
2018,10,15,00,34,4.70
2018,10,15,00,35,4.70
2018,10,15,00,36,4.70
2018,10,15,00,37,4.70
2018,10,15,00,38,4.70
2018,10,15,00,39,4.70
2018,10,15,00,40,4.70
2018,10,15,00,41,4.70
2018,10,15,00,42,4.70
2018,10,15,00,43,4.70
2018,10,15,00,44,4.70
2018,10,15,00,45,4.70
2018,10,15,00,46,4.70
2018,10,15,00,47,4.70
2018,10,15,00,48,4.70
2018,10,15,00,49,4.70
2018,10,15,00,50,4.70
2018,10,15,00,51,4.70
2018,10,15,00,52,4.70
2018,10,15,00,53,4.70
2018,10,15,00,54,4.70
2018,10,15,00,55,4.70
2018,10,15,00,56,4.70
2018,10,15,00,57,4.60
2018,10,15,00,58,4.60
2018,10,15,00,59,4.60
2018,10,15,01,00,4.60
2018,10,15,01,01,4.60
2018,10,15,01,02,4.60
2018,10,15,01,03,4.60
2018,10,15,01,04,4.60
2018,10,15,01,05,4.60
2018,10,15,01,06,4.60
2018,10,15,01,07,4.60
2018,10,15,01,08,4.60
2018,10,15,01,09,4.60
2018,10,15,01,10,4.60
2018,10,15,01,11,4.60
2018,10,15,01,12,4.60
2018,10,15,01,13,4.60
2018,10,15,01,14,4.60
2018,10,15,01,15,4.60
2018,10,15,01,16,4.60
2018,10,15,01,17,4.50
2018,10,15,01,18,4.50
2018,10,15,01,19,4.50
2018,10,15,01,20,4.50
2018,10,15,01,21,4.50
2018,10,15,01,22,4.50
2018,10,15,01,23,4.50
2018,10,15,01,24,4.40
2018,10,15,01,25,4.40
2018,10,15,01,26,4.40
2018,10,15,01,27,4.40
2018,10,15,01,28,4.40
2018,10,15,01,29,4.40
2018,10,15,01,30,4.40
2018,10,15,01,31,4.40
2018,10,15,01,32,4.40
2018,10,15,01,33,4.40
2018,10,15,01,34,4.40
2018,10,15,01,35,4.40
2018,10,15,01,36,4.40
2018,10,15,01,37,4.40
2018,10,15,01,38,4.40
2018,10,15,01,39,4.40
2018,10,15,01,40,4.40
2018,10,15,01,41,4.40
2018,10,15,01,42,4.50
2018,10,15,01,43,4.50
2018,10,15,01,44,4.50
2018,10,15,01,45,4.50
2018,10,15,01,46,4.50
2018,10,15,01,47,4.50
2018,10,15,01,48,4.50
2018,10,15,01,49,4.50
2018,10,15,01,50,4.50
2018,10,15,01,51,4.60
2018,10,15,01,52,4.50
2018,10,15,01,53,4.50
2018,10,15,01,54,4.50
2018,10,15,01,55,4.50
2018,10,15,01,56,4.50
2018,10,15,01,57,4.50
2018,10,15,01,58,4.50
2018,10,15,01,59,4.50
2018,10,15,02,00,4.50
2018,10,15,02,01,4.50
2018,10,15,02,02,4.50
2018,10,15,02,03,4.50
2018,10,15,02,04,4.40
2018,10,15,02,05,4.40
2018,10,15,02,06,4.40
2018,10,15,02,07,4.40
2018,10,15,02,08,4.40
2018,10,15,02,09,4.30
2018,10,15,02,10,4.30
2018,10,15,02,11,4.30
2018,10,15,02,12,4.20
2018,10,15,02,13,4.20
2018,10,15,02,14,4.20
2018,10,15,02,15,4.20
2018,10,15,02,16,4.20
2018,10,15,02,17,4.20
2018,10,15,02,18,4.20
2018,10,15,02,19,4.20
2018,10,15,02,20,4.20
2018,10,15,02,21,4.20
2018,10,15,02,22,4.20
2018,10,15,02,23,4.20
2018,10,15,02,24,4.20
2018,10,15,02,25,4.20
2018,10,15,02,26,4.20
2018,10,15,02,27,4.20
2018,10,15,02,28,4.10
2018,10,15,02,29,4.10
2018,10,15,02,30,4.10
2018,10,15,02,31,4.10
2018,10,15,02,32,4.10
2018,10,15,02,33,4.00
2018,10,15,02,34,4.00
2018,10,15,02,35,4.00
2018,10,15,02,36,4.00
2018,10,15,02,37,4.00
2018,10,15,02,38,4.00
2018,10,15,02,39,4.00
2018,10,15,02,40,4.00
2018,10,15,02,41,4.00
2018,10,15,02,42,4.00
2018,10,15,02,43,4.00
2018,10,15,02,44,4.00
2018,10,15,02,45,4.00
2018,10,15,02,46,4.00
2018,10,15,02,47,4.00
2018,10,15,02,48,4.00
2018,10,15,02,49,4.00
2018,10,15,02,50,4.00
2018,10,15,02,51,4.00
2018,10,15,02,52,4.00
2018,10,15,02,53,4.00
2018,10,15,02,54,4.00
2018,10,15,02,55,4.00
2018,10,15,02,56,4.00
2018,10,15,02,57,4.00
2018,10,15,02,58,4.00
2018,10,15,02,59,4.00
2018,10,15,03,00,4.10
2018,10,15,03,01,4.10
2018,10,15,03,02,4.10
2018,10,15,03,03,4.10
2018,10,15,03,04,4.10
2018,10,15,03,05,4.00
2018,10,15,03,06,4.00
2018,10,15,03,07,4.00
2018,10,15,03,08,4.00
2018,10,15,03,09,3.90
2018,10,15,03,10,3.90
2018,10,15,03,11,3.90
2018,10,15,03,12,3.80
2018,10,15,03,13,3.80
2018,10,15,03,14,3.80
2018,10,15,03,15,3.80
2018,10,15,03,16,3.80
2018,10,15,03,17,3.80
2018,10,15,03,18,3.80
2018,10,15,03,19,3.80
2018,10,15,03,20,3.80
2018,10,15,03,21,3.80
2018,10,15,03,22,3.80
2018,10,15,03,23,3.90
2018,10,15,03,24,3.90
2018,10,15,03,25,3.90
2018,10,15,03,26,3.90
2018,10,15,03,27,3.90
2018,10,15,03,28,3.90
2018,10,15,03,29,3.90
2018,10,15,03,30,3.90
2018,10,15,03,31,3.90
2018,10,15,03,32,3.80
2018,10,15,03,33,3.80
2018,10,15,03,34,3.80
2018,10,15,03,35,3.80
2018,10,15,03,36,3.80
2018,10,15,03,37,3.80
2018,10,15,03,38,3.80
2018,10,15,03,39,3.80
2018,10,15,03,40,3.80
2018,10,15,03,41,3.80
2018,10,15,03,42,3.80
2018,10,15,03,43,3.80
2018,10,15,03,44,3.70
2018,10,15,03,45,3.70
2018,10,15,03,46,3.70
2018,10,15,03,47,3.70
2018,10,15,03,48,3.60
2018,10,15,03,49,3.60
2018,10,15,03,50,3.60
2018,10,15,03,51,3.60
2018,10,15,03,52,3.60
2018,10,15,03,53,3.60
2018,10,15,03,54,3.60
2018,10,15,03,55,3.60
2018,10,15,03,56,3.60
2018,10,15,03,57,3.70
2018,10,15,03,58,3.70
2018,10,15,03,59,3.70
2018,10,15,04,00,3.70
2018,10,15,04,01,3.80
2018,10,15,04,02,3.80
2018,10,15,04,03,3.80
2018,10,15,04,04,3.80
2018,10,15,04,05,3.70
2018,10,15,04,06,3.70
2018,10,15,04,07,3.70
2018,10,15,04,08,3.70
2018,10,15,04,09,3.70
2018,10,15,04,10,3.70
2018,10,15,04,11,3.70
2018,10,15,04,12,3.70
2018,10,15,04,13,3.70
2018,10,15,04,14,3.70
2018,10,15,04,15,3.70
2018,10,15,04,16,3.70
2018,10,15,04,17,3.70
2018,10,15,04,18,3.60
2018,10,15,04,19,3.60
2018,10,15,04,20,3.60
2018,10,15,04,21,3.50
2018,10,15,04,22,3.50
2018,10,15,04,23,3.50
2018,10,15,04,24,3.50
2018,10,15,04,25,3.40
2018,10,15,04,26,3.40
2018,10,15,04,27,3.40
2018,10,15,04,28,3.40
2018,10,15,04,29,3.30
2018,10,15,04,30,3.30
2018,10,15,04,31,3.30
2018,10,15,04,32,3.30
2018,10,15,04,33,3.30
2018,10,15,04,34,3.30
2018,10,15,04,35,3.30
2018,10,15,04,36,3.30
2018,10,15,04,37,3.20
2018,10,15,04,38,3.20
2018,10,15,04,39,3.20
2018,10,15,04,40,3.20
2018,10,15,04,41,3.20
2018,10,15,04,42,3.20
2018,10,15,04,43,3.20
2018,10,15,04,44,3.20
2018,10,15,04,45,3.20
2018,10,15,04,46,3.20
2018,10,15,04,47,3.20
2018,10,15,04,48,3.30
2018,10,15,04,49,3.30
2018,10,15,04,50,3.30
2018,10,15,04,51,3.30
2018,10,15,04,52,3.30
2018,10,15,04,53,3.30
2018,10,15,04,54,3.30
2018,10,15,04,55,3.30
2018,10,15,04,56,3.30
2018,10,15,04,57,3.30
2018,10,15,04,58,3.30
2018,10,15,04,59,3.30
2018,10,15,05,00,3.20
2018,10,15,05,01,3.20
2018,10,15,05,02,3.20
2018,10,15,05,03,3.20
2018,10,15,05,04,3.20
2018,10,15,05,05,3.20
2018,10,15,05,06,3.20
2018,10,15,05,07,3.20
2018,10,15,05,08,3.20
2018,10,15,05,09,3.20
2018,10,15,05,10,3.20
2018,10,15,05,11,3.10
2018,10,15,05,12,3.10
2018,10,15,05,13,3.10
2018,10,15,05,14,3.10
2018,10,15,05,15,3.10
2018,10,15,05,16,3.10
2018,10,15,05,17,3.10
2018,10,15,05,18,3.10
2018,10,15,05,19,3.10
2018,10,15,05,20,3.10
2018,10,15,05,21,3.10
2018,10,15,05,22,3.10
2018,10,15,05,23,3.10
2018,10,15,05,24,3.10
2018,10,15,05,25,3.10
2018,10,15,05,26,3.10
2018,10,15,05,27,3.10
2018,10,15,05,28,3.10
2018,10,15,05,29,3.10
2018,10,15,05,30,3.10
2018,10,15,05,31,3.10
2018,10,15,05,32,3.10
2018,10,15,05,33,3.10
2018,10,15,05,34,3.10
2018,10,15,05,35,3.20
2018,10,15,05,36,3.20
2018,10,15,05,37,3.20
2018,10,15,05,38,3.20
2018,10,15,05,39,3.20
2018,10,15,05,40,3.20
2018,10,15,05,41,3.20
2018,10,15,05,42,3.20
2018,10,15,05,43,3.20
2018,10,15,05,44,3.20
2018,10,15,05,45,3.20
2018,10,15,05,46,3.20
2018,10,15,05,47,3.20
2018,10,15,05,48,3.20
2018,10,15,05,49,3.10
2018,10,15,05,50,3.10
2018,10,15,05,51,3.10
2018,10,15,05,52,3.10
2018,10,15,05,53,3.10
2018,10,15,05,54,3.10
2018,10,15,05,55,3.10
2018,10,15,05,56,3.10
2018,10,15,05,57,3.20
2018,10,15,05,58,3.20
2018,10,15,05,59,3.20
2018,10,15,06,00,3.20
2018,10,15,06,01,3.20
2018,10,15,06,02,3.20
2018,10,15,06,03,3.20
2018,10,15,06,04,3.20
2018,10,15,06,05,3.20
2018,10,15,06,06,3.20
2018,10,15,06,07,3.20
2018,10,15,06,08,3.10
2018,10,15,06,09,3.10
2018,10,15,06,10,3.10
2018,10,15,06,11,3.10
2018,10,15,06,12,3.10
2018,10,15,06,13,3.10
2018,10,15,06,14,3.10
2018,10,15,06,15,3.10
2018,10,15,06,16,3.10
2018,10,15,06,17,3.10
2018,10,15,06,18,3.10
2018,10,15,06,19,3.10
2018,10,15,06,20,3.10
2018,10,15,06,21,3.10
2018,10,15,06,22,3.20
2018,10,15,06,23,3.20
2018,10,15,06,24,3.20
2018,10,15,06,25,3.20
2018,10,15,06,26,3.30
2018,10,15,06,27,3.30
2018,10,15,06,28,3.30
2018,10,15,06,29,3.30
2018,10,15,06,30,3.30
2018,10,15,06,31,3.30
2018,10,15,06,32,3.30
2018,10,15,06,33,3.30
2018,10,15,06,34,3.30
2018,10,15,06,35,3.30
2018,10,15,06,36,3.30
2018,10,15,06,37,3.30
2018,10,15,06,38,3.30
2018,10,15,06,39,3.30
2018,10,15,06,40,3.30
2018,10,15,06,41,3.30
2018,10,15,06,42,3.30
2018,10,15,06,43,3.30
2018,10,15,06,44,3.30
2018,10,15,06,45,3.30
2018,10,15,06,46,3.30
2018,10,15,06,47,3.30
2018,10,15,06,48,3.30
2018,10,15,06,49,3.30
2018,10,15,06,50,3.30
2018,10,15,06,51,3.30
2018,10,15,06,52,3.30
2018,10,15,06,53,3.30
2018,10,15,06,54,3.30
2018,10,15,06,55,3.30
2018,10,15,06,56,3.30
2018,10,15,06,57,3.30
2018,10,15,06,58,3.30
2018,10,15,06,59,3.30
2018,10,15,07,00,3.30
2018,10,15,07,01,3.30
2018,10,15,07,02,3.30
2018,10,15,07,03,3.30
2018,10,15,07,04,3.30
2018,10,15,07,05,3.30
2018,10,15,07,06,3.30
2018,10,15,07,07,3.30
2018,10,15,07,08,3.30
2018,10,15,07,09,3.30
2018,10,15,07,10,3.30
2018,10,15,07,11,3.30
2018,10,15,07,12,3.30
2018,10,15,07,13,3.30
2018,10,15,07,14,3.30
2018,10,15,07,15,3.30
2018,10,15,07,16,3.30
2018,10,15,07,17,3.30
2018,10,15,07,18,3.30
2018,10,15,07,19,3.30
2018,10,15,07,20,3.30
2018,10,15,07,21,3.40
2018,10,15,07,22,3.40
2018,10,15,07,23,3.40
2018,10,15,07,24,3.40
2018,10,15,07,25,3.40
2018,10,15,07,26,3.40
2018,10,15,07,27,3.40
2018,10,15,07,28,3.40
2018,10,15,07,29,3.40
2018,10,15,07,30,3.40
2018,10,15,07,31,3.40
2018,10,15,07,32,3.40
2018,10,15,07,33,3.40
2018,10,15,07,34,3.40
2018,10,15,07,35,3.40
2018,10,15,07,36,3.40
2018,10,15,07,37,3.40
2018,10,15,07,38,3.40
2018,10,15,07,39,3.40
2018,10,15,07,40,3.30
2018,10,15,07,41,3.30
2018,10,15,07,42,3.30
2018,10,15,07,43,3.30
2018,10,15,07,44,3.30
2018,10,15,07,45,3.30
2018,10,15,07,46,3.30
2018,10,15,07,47,3.30
2018,10,15,07,48,3.30
2018,10,15,07,49,3.20
2018,10,15,07,50,3.20
2018,10,15,07,51,3.20
2018,10,15,07,52,3.20
2018,10,15,07,53,3.20
2018,10,15,07,54,3.20
2018,10,15,07,55,3.20
2018,10,15,07,56,3.20
2018,10,15,07,57,3.20
2018,10,15,07,58,3.20
2018,10,15,07,59,3.20
2018,10,15,08,00,3.30
2018,10,15,08,01,3.30
2018,10,15,08,02,3.30
2018,10,15,08,03,3.30
2018,10,15,08,04,3.30
2018,10,15,08,05,3.30
2018,10,15,08,06,3.40
2018,10,15,08,07,3.40
2018,10,15,08,08,3.40
2018,10,15,08,09,3.40
2018,10,15,08,10,3.50
2018,10,15,08,11,3.50
2018,10,15,08,12,3.50
2018,10,15,08,13,3.60
2018,10,15,08,14,3.60
2018,10,15,08,15,3.60
2018,10,15,08,16,3.60
2018,10,15,08,17,3.60
2018,10,15,08,18,3.60
2018,10,15,08,19,3.60
2018,10,15,08,20,3.60
2018,10,15,08,21,3.60
2018,10,15,08,22,3.60
2018,10,15,08,23,3.60
2018,10,15,08,24,3.70
2018,10,15,08,25,3.70
2018,10,15,08,26,3.70
2018,10,15,08,27,3.70
2018,10,15,08,28,3.80
2018,10,15,08,29,3.80
2018,10,15,08,30,3.80
2018,10,15,08,31,3.90
2018,10,15,08,32,3.90
2018,10,15,08,33,4.00
2018,10,15,08,34,4.00
2018,10,15,08,35,4.00
2018,10,15,08,36,4.10
2018,10,15,08,37,4.10
2018,10,15,08,38,4.20
2018,10,15,08,39,4.20
2018,10,15,08,40,4.30
2018,10,15,08,41,4.40
2018,10,15,08,42,4.40
2018,10,15,08,43,4.50
2018,10,15,08,44,4.50
2018,10,15,08,45,4.60
2018,10,15,08,46,4.60
2018,10,15,08,47,4.70
2018,10,15,08,48,4.80
2018,10,15,08,49,4.80
2018,10,15,08,50,4.90
2018,10,15,08,51,5.00
2018,10,15,08,52,5.10
2018,10,15,08,53,5.20
2018,10,15,08,54,5.30
2018,10,15,08,55,5.30
2018,10,15,08,56,5.50
2018,10,15,08,57,5.50
2018,10,15,08,58,5.70
2018,10,15,08,59,5.80
2018,10,15,09,00,5.90
2018,10,15,09,01,6.10
2018,10,15,09,02,6.20
2018,10,15,09,03,6.20
2018,10,15,09,04,6.30
2018,10,15,09,05,6.40
2018,10,15,09,06,6.60
2018,10,15,09,07,6.70
2018,10,15,09,08,6.80
2018,10,15,09,09,7.00
2018,10,15,09,10,7.10
2018,10,15,09,11,7.20
2018,10,15,09,12,7.30
2018,10,15,09,13,7.40
2018,10,15,09,14,7.50
2018,10,15,09,15,7.60
2018,10,15,09,16,7.70
2018,10,15,09,17,7.80
2018,10,15,09,18,7.80
2018,10,15,09,19,7.90
2018,10,15,09,20,8.00
2018,10,15,09,21,8.00
2018,10,15,09,22,8.10
2018,10,15,09,23,8.20
2018,10,15,09,24,8.30
2018,10,15,09,25,8.40
2018,10,15,09,26,8.50
2018,10,15,09,27,8.60
2018,10,15,09,28,8.70
2018,10,15,09,29,8.80
2018,10,15,09,30,8.90
2018,10,15,09,31,9.00
2018,10,15,09,32,9.10
2018,10,15,09,33,9.20
2018,10,15,09,34,9.20
2018,10,15,09,35,9.30
2018,10,15,09,36,9.40
2018,10,15,09,37,9.50
2018,10,15,09,38,9.50
2018,10,15,09,39,9.60
2018,10,15,09,40,9.70
2018,10,15,09,41,9.70
2018,10,15,09,42,9.80
2018,10,15,09,43,9.90
2018,10,15,09,44,9.90
2018,10,15,09,45,9.90
2018,10,15,09,46,10.00
2018,10,15,09,47,10.10
2018,10,15,09,48,10.10
2018,10,15,09,49,10.20
2018,10,15,09,50,10.30
2018,10,15,09,51,10.40
2018,10,15,09,52,10.50
2018,10,15,09,53,10.70
2018,10,15,09,54,10.80
2018,10,15,09,55,10.90
2018,10,15,09,56,11.10
2018,10,15,09,57,11.20
2018,10,15,09,58,11.40
2018,10,15,09,59,11.50
2018,10,15,10,00,11.60
2018,10,15,10,01,11.80
2018,10,15,10,02,11.90
2018,10,15,10,03,12.00
2018,10,15,10,04,12.10
2018,10,15,10,05,12.20
2018,10,15,10,06,12.30
2018,10,15,10,07,12.30
2018,10,15,10,08,12.40
2018,10,15,10,09,12.50
2018,10,15,10,10,12.60
2018,10,15,10,11,12.60
2018,10,15,10,12,12.60
2018,10,15,10,13,12.70
2018,10,15,10,14,12.70
2018,10,15,10,15,12.70
2018,10,15,10,16,12.80
2018,10,15,10,17,12.80
2018,10,15,10,18,12.80
2018,10,15,10,19,12.90
2018,10,15,10,20,12.90
2018,10,15,10,21,13.00
2018,10,15,10,22,13.00
2018,10,15,10,23,13.10
2018,10,15,10,24,13.10
2018,10,15,10,25,13.20
2018,10,15,10,26,13.20
2018,10,15,10,27,13.30
2018,10,15,10,28,13.30
2018,10,15,10,29,13.30
2018,10,15,10,30,13.40
2018,10,15,10,31,13.40
2018,10,15,10,32,13.50
2018,10,15,10,33,13.50
2018,10,15,10,34,13.60
2018,10,15,10,35,13.70
2018,10,15,10,36,13.70
2018,10,15,10,37,13.70
2018,10,15,10,38,13.80
2018,10,15,10,39,13.90
2018,10,15,10,40,13.90
2018,10,15,10,41,13.90
2018,10,15,10,42,14.00
2018,10,15,10,43,14.00
2018,10,15,10,44,14.10
2018,10,15,10,45,14.10
2018,10,15,10,46,14.10
2018,10,15,10,47,14.10
2018,10,15,10,48,14.10
2018,10,15,10,49,14.20
2018,10,15,10,50,14.20
2018,10,15,10,51,14.20
2018,10,15,10,52,14.20
2018,10,15,10,53,14.20
2018,10,15,10,54,14.20
2018,10,15,10,55,14.30
2018,10,15,10,56,14.30
2018,10,15,10,57,14.40
2018,10,15,10,58,14.40
2018,10,15,10,59,14.50
2018,10,15,11,00,14.50
2018,10,15,11,01,14.60
2018,10,15,11,02,14.60
2018,10,15,11,03,14.60
2018,10,15,11,04,14.60
2018,10,15,11,05,14.70
2018,10,15,11,06,14.70
2018,10,15,11,07,14.80
2018,10,15,11,08,14.80
2018,10,15,11,09,14.90
2018,10,15,11,10,14.90
2018,10,15,11,11,15.00
2018,10,15,11,12,15.00
2018,10,15,11,13,15.00
2018,10,15,11,14,15.10
2018,10,15,11,15,15.10
2018,10,15,11,16,15.20
2018,10,15,11,17,15.20
2018,10,15,11,18,15.20
2018,10,15,11,19,15.20
2018,10,15,11,20,15.20
2018,10,15,11,21,15.30
2018,10,15,11,22,15.30
2018,10,15,11,23,15.30
2018,10,15,11,24,15.30
2018,10,15,11,25,15.40
2018,10,15,11,26,15.40
2018,10,15,11,27,15.40
2018,10,15,11,28,15.40
2018,10,15,11,29,15.40
2018,10,15,11,30,15.50
2018,10,15,11,31,15.50
2018,10,15,11,32,15.50
2018,10,15,11,33,15.60
2018,10,15,11,34,15.70
2018,10,15,11,35,15.80
2018,10,15,11,36,15.80
2018,10,15,11,37,15.80
2018,10,15,11,38,15.90
2018,10,15,11,39,16.00
2018,10,15,11,40,16.10
2018,10,15,11,41,16.10
2018,10,15,11,42,16.10
2018,10,15,11,43,16.10
2018,10,15,11,44,16.10
2018,10,15,11,45,16.10
2018,10,15,11,46,16.10
2018,10,15,11,47,16.20
2018,10,15,11,48,16.20
2018,10,15,11,49,16.30
2018,10,15,11,50,16.40
2018,10,15,11,51,16.50
2018,10,15,11,52,16.70
2018,10,15,11,53,16.70
2018,10,15,11,54,16.70
2018,10,15,11,55,16.70
2018,10,15,11,56,16.70
2018,10,15,11,57,16.70
2018,10,15,11,58,16.60
2018,10,15,11,59,16.60
2018,10,15,12,00,16.60
2018,10,15,12,01,16.60
2018,10,15,12,02,16.60
2018,10,15,12,03,16.60
2018,10,15,12,04,16.60
2018,10,15,12,05,16.60
2018,10,15,12,06,16.70
2018,10,15,12,07,16.70
2018,10,15,12,08,16.70
2018,10,15,12,09,16.70
2018,10,15,12,10,16.70
2018,10,15,12,11,16.80
2018,10,15,12,12,16.80
2018,10,15,12,13,16.80
2018,10,15,12,14,16.80
2018,10,15,12,15,16.70
2018,10,15,12,16,16.70
2018,10,15,12,17,16.70
2018,10,15,12,18,16.70
2018,10,15,12,19,16.70
2018,10,15,12,20,16.80
2018,10,15,12,21,16.80
2018,10,15,12,22,17.00
2018,10,15,12,23,17.10
2018,10,15,12,24,17.20
2018,10,15,12,25,17.30
2018,10,15,12,26,17.30
2018,10,15,12,27,17.40
2018,10,15,12,28,17.50
2018,10,15,12,29,17.50
2018,10,15,12,30,17.70
2018,10,15,12,31,17.80
2018,10,15,12,32,17.90
2018,10,15,12,33,17.90
2018,10,15,12,34,17.90
2018,10,15,12,35,17.90
2018,10,15,12,36,17.90
2018,10,15,12,37,17.90
2018,10,15,12,38,17.90
2018,10,15,12,39,17.90
2018,10,15,12,40,17.90
2018,10,15,12,41,17.90
2018,10,15,12,42,17.90
2018,10,15,12,43,17.80
2018,10,15,12,44,17.80
2018,10,15,12,45,17.90
2018,10,15,12,46,17.90
2018,10,15,12,47,18.00
2018,10,15,12,48,18.20
2018,10,15,12,49,18.20
2018,10,15,12,50,18.30
2018,10,15,12,51,18.30
2018,10,15,12,52,18.20
2018,10,15,12,53,18.20
2018,10,15,12,54,18.20
2018,10,15,12,55,18.20
2018,10,15,12,56,18.30
2018,10,15,12,57,18.30
2018,10,15,12,58,18.40
2018,10,15,12,59,18.40
2018,10,15,13,00,18.30
2018,10,15,13,01,18.30
2018,10,15,13,02,18.30
2018,10,15,13,03,18.40
2018,10,15,13,04,18.50
2018,10,15,13,05,18.50
2018,10,15,13,06,18.50
2018,10,15,13,07,18.50
2018,10,15,13,08,18.50
2018,10,15,13,09,18.60
2018,10,15,13,10,18.60
2018,10,15,13,11,18.50
2018,10,15,13,12,18.50
2018,10,15,13,13,18.60
2018,10,15,13,14,18.60
2018,10,15,13,15,18.70
2018,10,15,13,16,18.80
2018,10,15,13,17,18.90
2018,10,15,13,18,18.90
2018,10,15,13,19,18.90
2018,10,15,13,20,18.80
2018,10,15,13,21,18.80
2018,10,15,13,22,18.80
2018,10,15,13,23,18.80
2018,10,15,13,24,18.70
2018,10,15,13,25,18.70
2018,10,15,13,26,18.80
2018,10,15,13,27,18.80
2018,10,15,13,28,18.90
2018,10,15,13,29,18.90
2018,10,15,13,30,18.90
2018,10,15,13,31,19.00
2018,10,15,13,32,19.10
2018,10,15,13,33,19.10
2018,10,15,13,34,19.20
2018,10,15,13,35,19.30
2018,10,15,13,36,19.30
2018,10,15,13,37,19.30
2018,10,15,13,38,19.30
2018,10,15,13,39,19.30
2018,10,15,13,40,19.20
2018,10,15,13,41,19.10
2018,10,15,13,42,19.10
2018,10,15,13,43,19.20
2018,10,15,13,44,19.20
2018,10,15,13,45,19.30
2018,10,15,13,46,19.50
2018,10,15,13,47,19.70
2018,10,15,13,48,19.80
2018,10,15,13,49,19.80
2018,10,15,13,50,19.70
2018,10,15,13,51,19.70
2018,10,15,13,52,19.60
2018,10,15,13,53,19.50
2018,10,15,13,54,19.40
2018,10,15,13,55,19.30
2018,10,15,13,56,19.10
2018,10,15,13,57,19.10
2018,10,15,13,58,19.00
2018,10,15,13,59,18.90
2018,10,15,14,00,18.90
2018,10,15,14,01,18.80
2018,10,15,14,02,18.90
2018,10,15,14,03,18.90
2018,10,15,14,04,19.00
2018,10,15,14,05,19.10
2018,10,15,14,06,19.10
2018,10,15,14,07,19.20
2018,10,15,14,08,19.20
2018,10,15,14,09,19.20
2018,10,15,14,10,19.30
2018,10,15,14,11,19.20
2018,10,15,14,12,19.20
2018,10,15,14,13,19.10
2018,10,15,14,14,19.10
2018,10,15,14,15,19.10
2018,10,15,14,16,19.20
2018,10,15,14,17,19.40
2018,10,15,14,18,19.40
2018,10,15,14,19,19.50
2018,10,15,14,20,19.50
2018,10,15,14,21,19.50
2018,10,15,14,22,19.50
2018,10,15,14,23,19.40
2018,10,15,14,24,19.40
2018,10,15,14,25,19.30
2018,10,15,14,26,19.30
2018,10,15,14,27,19.40
2018,10,15,14,28,19.40
2018,10,15,14,29,19.40
2018,10,15,14,30,19.40
2018,10,15,14,31,19.40
2018,10,15,14,32,19.50
2018,10,15,14,33,19.50
2018,10,15,14,34,19.50
2018,10,15,14,35,19.40
2018,10,15,14,36,19.40
2018,10,15,14,37,19.30
2018,10,15,14,38,19.30
2018,10,15,14,39,19.30
2018,10,15,14,40,19.30
2018,10,15,14,41,19.30
2018,10,15,14,42,19.40
2018,10,15,14,43,19.40
2018,10,15,14,44,19.40
2018,10,15,14,45,19.40
2018,10,15,14,46,19.40
2018,10,15,14,47,19.40
2018,10,15,14,48,19.50
2018,10,15,14,49,19.70
2018,10,15,14,50,19.70
2018,10,15,14,51,19.60
2018,10,15,14,52,19.60
2018,10,15,14,53,19.60
2018,10,15,14,54,19.50
2018,10,15,14,55,19.60
2018,10,15,14,56,19.70
2018,10,15,14,57,19.80
2018,10,15,14,58,19.90
2018,10,15,14,59,19.90
2018,10,15,15,00,19.90
2018,10,15,15,01,19.90
2018,10,15,15,02,19.90
2018,10,15,15,03,19.90
2018,10,15,15,04,19.90
2018,10,15,15,05,19.90
2018,10,15,15,06,19.80
2018,10,15,15,07,19.80
2018,10,15,15,08,19.80
2018,10,15,15,09,19.80
2018,10,15,15,10,19.80
2018,10,15,15,11,19.90
2018,10,15,15,12,19.90
2018,10,15,15,13,19.90
2018,10,15,15,14,19.90
2018,10,15,15,15,19.90
2018,10,15,15,16,19.90
2018,10,15,15,17,19.90
2018,10,15,15,18,19.90
2018,10,15,15,19,19.90
2018,10,15,15,20,20.00
2018,10,15,15,21,20.10
2018,10,15,15,22,20.10
2018,10,15,15,23,20.10
2018,10,15,15,24,20.20
2018,10,15,15,25,20.20
2018,10,15,15,26,20.20
2018,10,15,15,27,20.20
2018,10,15,15,28,20.20
2018,10,15,15,29,20.20
2018,10,15,15,30,20.10
2018,10,15,15,31,20.10
2018,10,15,15,32,20.00
2018,10,15,15,33,19.90
2018,10,15,15,34,19.90
2018,10,15,15,35,19.90
2018,10,15,15,36,19.90
2018,10,15,15,37,19.90
2018,10,15,15,38,20.00
2018,10,15,15,39,20.10
2018,10,15,15,40,20.20
2018,10,15,15,41,20.20
2018,10,15,15,42,20.20
2018,10,15,15,43,20.10
2018,10,15,15,44,20.00
2018,10,15,15,45,19.90
2018,10,15,15,46,19.80
2018,10,15,15,47,19.80
2018,10,15,15,48,19.70
2018,10,15,15,49,19.60
2018,10,15,15,50,19.60
2018,10,15,15,51,19.50
2018,10,15,15,52,19.50
2018,10,15,15,53,19.50
2018,10,15,15,54,19.50
2018,10,15,15,55,19.50
2018,10,15,15,56,19.50
2018,10,15,15,57,19.60
2018,10,15,15,58,19.60
2018,10,15,15,59,19.60
2018,10,15,16,00,19.60
2018,10,15,16,01,19.60
2018,10,15,16,02,19.60
2018,10,15,16,03,19.60
2018,10,15,16,04,19.60
2018,10,15,16,05,19.50
2018,10,15,16,06,19.50
2018,10,15,16,07,19.50
2018,10,15,16,08,19.50
2018,10,15,16,09,19.50
2018,10,15,16,10,19.50
2018,10,15,16,11,19.60
2018,10,15,16,12,19.60
2018,10,15,16,13,19.60
2018,10,15,16,14,19.70
2018,10,15,16,15,19.70
2018,10,15,16,16,19.70
2018,10,15,16,17,19.60
2018,10,15,16,18,19.60
2018,10,15,16,19,19.50
2018,10,15,16,20,19.40
2018,10,15,16,21,19.40
2018,10,15,16,22,19.30
2018,10,15,16,23,19.30
2018,10,15,16,24,19.30
2018,10,15,16,25,19.30
2018,10,15,16,26,19.30
2018,10,15,16,27,19.30
2018,10,15,16,28,19.40
2018,10,15,16,29,19.40
2018,10,15,16,30,19.40
2018,10,15,16,31,19.40
2018,10,15,16,32,19.50
2018,10,15,16,33,19.50
2018,10,15,16,34,19.40
2018,10,15,16,35,19.40
2018,10,15,16,36,19.30
2018,10,15,16,37,19.30
2018,10,15,16,38,19.30
2018,10,15,16,39,19.30
2018,10,15,16,40,19.40
2018,10,15,16,41,19.40
2018,10,15,16,42,19.40
2018,10,15,16,43,19.50
2018,10,15,16,44,19.50
2018,10,15,16,45,19.50
2018,10,15,16,46,19.50
2018,10,15,16,47,19.40
2018,10,15,16,48,19.30
2018,10,15,16,49,19.10
2018,10,15,16,50,19.00
2018,10,15,16,51,18.90
2018,10,15,16,52,18.80
2018,10,15,16,53,18.80
2018,10,15,16,54,18.70
2018,10,15,16,55,18.70
2018,10,15,16,56,18.70
2018,10,15,16,57,18.70
2018,10,15,16,58,18.60
2018,10,15,16,59,18.60
2018,10,15,17,00,18.50
2018,10,15,17,01,18.50
2018,10,15,17,02,18.50
2018,10,15,17,03,18.40
2018,10,15,17,04,18.30
2018,10,15,17,05,18.20
2018,10,15,17,06,18.10
2018,10,15,17,07,18.10
2018,10,15,17,08,17.90
2018,10,15,17,09,17.90
2018,10,15,17,10,17.80
2018,10,15,17,11,17.80
2018,10,15,17,12,17.70
2018,10,15,17,13,17.60
2018,10,15,17,14,17.60
2018,10,15,17,15,17.60
2018,10,15,17,16,17.50
2018,10,15,17,17,17.50
2018,10,15,17,18,17.50
2018,10,15,17,19,17.50
2018,10,15,17,20,17.50
2018,10,15,17,21,17.50
2018,10,15,17,22,17.40
2018,10,15,17,23,17.40
2018,10,15,17,24,17.40
2018,10,15,17,25,17.40
2018,10,15,17,26,17.40
2018,10,15,17,27,17.40
2018,10,15,17,28,17.30
2018,10,15,17,29,17.30
2018,10,15,17,30,17.30
2018,10,15,17,31,17.30
2018,10,15,17,32,17.30
2018,10,15,17,33,17.30
2018,10,15,17,34,17.30
2018,10,15,17,35,17.30
2018,10,15,17,36,17.30
2018,10,15,17,37,17.20
2018,10,15,17,38,17.20
2018,10,15,17,39,17.10
2018,10,15,17,40,17.10
2018,10,15,17,41,17.00
2018,10,15,17,42,17.00
2018,10,15,17,43,17.00
2018,10,15,17,44,17.00